Simultaneous Nadir Overpasses (SNOs) Predictions

Prediction of SNOs between GOES-14 and AQUA Satellite Orbit:

Table of predicted SNOs for the next 14.0 days since TLE Epoch: 7/20/2024
Index Date Time (GOES-14) GOES-14 Lat,Lon AQUA Lat,Lon Distance(km) Time Diff (sec)
1 07/20/2024 21:19:46 0.34,-108.44 0.78,-106.48 223.83 80
2 07/21/2024 09:37:10 -0.36,-108.50 0.23,-111.34 322.53 80
3 07/23/2024 09:23:00 -0.36,-108.49 -0.63,-107.22 144.58 80
4 07/23/2024 21:40:32 0.38,-108.42 -0.42,-112.11 418.86 80
5 07/25/2024 21:26:21 0.38,-108.42 0.47,-107.99 49.36 80
6 07/26/2024 09:43:44 -0.39,-108.48 0.57,-112.84 495.77 80
7 07/28/2024 09:26:52 -0.39,-108.48 -0.33,-108.71 27.40 80
8 07/30/2024 09:12:39 -0.39,-108.47 -1.22,-104.59 441.04 80
9 07/30/2024 21:30:09 0.41,-108.39 0.18,-109.47 122.50 80
10 08/01/2024 21:15:54 0.41,-108.38 1.05,-105.33 346.54 80
11 08/02/2024 09:33:17 -0.43,-108.45 -0.05,-110.19 197.87 80
